Simultaneous Nadir Overpasses (SNOs) Predictions

Prediction of SNOs between FY3D and METOP-A Satellite Orbit:

Table of predicted SNOs for the next 14.0 days since TLE Epoch: 11/28/2020
Index Date (FY3D) Time (FY3D) Lat,Lon (FY3D) SZA (FY3D ) Date (METOP-A) Time (METOP-A) Lat,Lon (METOP-A) SZA (METOP-A ) Distance(km) Time Diff (sec)
1 11/28/2020 14:59:12 -76.31, 119.37 81.99 11/28/2020 14:59:56 -76.31, 119.28 82.00 2.38 44
2 11/28/2020 15:49:57 76.33, -73.37 98.04 11/28/2020 15:50:36 76.32, -73.36 98.02 1.10 39
3 11/28/2020 16:40:41 -76.31, 94.00 81.98 11/28/2020 16:41:17 -76.34, 94.03 81.97 2.76 36
4 11/28/2020 17:31:26 76.33, -98.74 98.05 11/28/2020 17:31:58 76.30, -98.77 98.01 3.23 32
5 11/28/2020 18:22:10 -76.31, 68.63 81.97 11/28/2020 18:22:39 -76.32, 68.62 81.97 0.65 29
6 11/28/2020 19:12:55 76.33,-124.11 98.06 11/28/2020 19:13:19 76.33,-124.02 98.05 2.35 24
7 11/28/2020 20:03:39 -76.31, 43.26 81.96 11/28/2020 20:04:01 -76.30, 43.22 81.97 1.89 22
8 11/28/2020 20:54:24 76.33,-149.47 98.07 11/28/2020 20:54:41 76.31,-149.42 98.05 2.47 17
9 11/28/2020 21:45:08 -76.31, 17.90 81.95 11/28/2020 21:45:22 -76.33, 17.97 81.94 2.52 14
10 11/28/2020 22:35:52 76.28,-174.68 98.03 11/28/2020 22:36:03 76.29,-174.83 98.04 4.14 11
11 11/28/2020 23:26:37 -76.31, -7.47 81.94 11/28/2020 23:26:44 -76.31, -7.44 81.94 0.93 7
12 11/29/2020 00:17:22 76.33, 159.79 98.09 11/29/2020 00:17:24 76.32, 159.92 98.08 3.57 2
13 11/29/2020 01:08:06 -76.31, -32.84 81.92 11/29/2020 01:08:06 -76.29, -32.85 81.95 2.41 0
14 11/29/2020 01:58:50 76.28, 134.59 98.05 11/29/2020 01:58:46 76.30, 134.51 98.07 2.72 4
15 11/29/2020 02:49:35 -76.31, -58.21 81.91 11/29/2020 02:49:27 -76.32, -58.09 81.91 3.05 8
16 11/29/2020 03:40:19 76.28, 109.22 98.06 11/29/2020 03:40:08 76.28, 109.11 98.07 2.98 11
17 11/29/2020 04:31:04 -76.31, -83.58 81.90 11/29/2020 04:30:49 -76.30, -83.50 81.91 2.37 15
18 11/29/2020 05:21:48 76.28, 83.85 98.07 11/29/2020 05:21:29 76.30, 83.86 98.10 2.94 19
19 11/29/2020 06:12:33 -76.31,-108.94 81.89 11/29/2020 06:12:11 -76.28,-108.91 81.92 3.51 22
20 11/29/2020 07:03:17 76.28, 58.48 98.08 11/29/2020 07:02:51 76.29, 58.45 98.10 1.23 26
21 11/29/2020 07:54:02 -76.31,-134.31 81.88 11/29/2020 07:53:32 -76.30,-134.16 81.88 4.07 30
22 11/29/2020 08:44:46 76.28, 33.11 98.10 11/29/2020 08:44:13 76.27, 33.04 98.10 2.24 33
23 11/29/2020 09:35:30 -76.26,-159.52 81.92 11/29/2020 09:34:54 -76.29,-159.56 81.89 2.95 36
24 11/29/2020 10:26:15 76.28, 7.75 98.11 11/29/2020 10:25:34 76.29, 7.79 98.13 2.27 41
25 11/29/2020 11:16:59 -76.26, 175.12 81.91 11/29/2020 11:16:16 -76.27, 175.03 81.89 2.35 43
26 11/29/2020 12:07:44 76.28, -17.62 98.12 11/29/2020 12:06:56 76.27, -17.61 98.13 0.26 48
27 11/29/2020 12:58:28 -76.26, 149.75 81.90 11/29/2020 12:57:38 -76.25, 149.62 81.89 3.57 50
28 11/29/2020 13:49:13 76.27, -42.99 98.13 11/29/2020 13:48:18 76.25, -43.02 98.12 2.37 55
29 11/29/2020 14:39:57 -76.26, 124.38 81.89 11/29/2020 14:38:59 -76.27, 124.37 81.86 1.69 58
30 11/29/2020 15:30:42 76.27, -68.36 98.14 11/29/2020 15:29:39 76.28, -68.27 98.16 2.47 63
31 11/29/2020 16:21:26 -76.26, 99.01 81.88 11/29/2020 16:20:21 -76.26, 98.97 81.86 1.22 65
32 11/29/2020 17:12:11 76.27, -93.73 98.15 11/29/2020 17:11:01 76.26, -93.68 98.15 1.76 70
33 11/29/2020 18:02:55 -76.26, 73.64 81.87 11/29/2020 18:01:43 -76.24, 73.56 81.87 3.25 72
34 11/29/2020 18:53:38 76.18,-118.77 98.06 11/29/2020 18:52:24 76.20,-119.24 98.11 12.62 74
35 11/29/2020 19:44:20 -76.08, 48.92 82.06 11/29/2020 19:43:08 -76.08, 47.69 81.98 32.78 72
36 11/29/2020 20:35:00 75.86,-143.04 97.70 11/29/2020 20:33:53 75.85,-145.72 97.84 72.84 67
37 11/29/2020 21:25:42 -75.75, 24.63 82.42 11/29/2020 21:24:36 -75.78, 21.38 82.21 88.72 66
